IBE245 DAAG-LEIB

Flight info

Callsign IBE245
Flight time 0h 37m
Altitude 24000
Route SADAF1A SADAF N856 INSUB
Aircraft A320/M-SDE3FGHIRWY/LB1

Departure

Time 2026-05-07 15:48
Airport Houari Boumediene Airport (DAAG)

Arrival

Time 2026-05-07 16:25
Airport Ibiza Airport (LEIB)
Time Latitude Longitude Altitude Speed Heading
2026-05-07 15:35 36.69736 3.21426 60 ft 0 kts 208°
2026-05-07 15:42 36.69722 3.21416 63 ft 6 kts 208°
2026-05-07 15:42 36.69687 3.21393 62 ft 5 kts 204°
2026-05-07 15:42 36.69634 3.21395 70 ft 15 kts 165°
2026-05-07 15:43 36.69550 3.21468 63 ft 12 kts 85°
2026-05-07 15:43 36.69561 3.21562 70 ft 10 kts 75°
2026-05-07 15:43 36.69581 3.21642 63 ft 9 kts 70°
2026-05-07 15:43 36.69594 3.21714 70 ft 8 kts 83°
2026-05-07 15:44 36.69597 3.21782 70 ft 8 kts 84°
2026-05-07 15:44 36.69657 3.21906 65 ft 26 kts 53°
2026-05-07 15:44 36.69795 3.22139 67 ft 40 kts 54°
2026-05-07 15:44 36.69984 3.22450 65 ft 48 kts 50°
2026-05-07 15:45 36.70194 3.22761 68 ft 46 kts 54°
2026-05-07 15:45 36.70375 3.23078 65 ft 44 kts 54°
2026-05-07 15:45 36.70557 3.23377 62 ft 43 kts 53°
2026-05-07 15:45 36.70729 3.23673 64 ft 42 kts 54°
2026-05-07 15:46 36.71040 3.24258 60 ft 40 kts 65°
2026-05-07 15:46 36.71159 3.24567 67 ft 39 kts 60°
2026-05-07 15:46 36.71327 3.24829 69 ft 37 kts 51°
2026-05-07 15:47 36.71338 3.25063 72 ft 27 kts 153°
2026-05-07 15:47 36.71192 3.24966 83 ft 27 kts 232°
2026-05-07 15:47 36.70970 3.24610 75 ft 85 kts 233°
2026-05-07 15:47 36.70487 3.23823 81 ft 141 kts 232°
2026-05-07 15:48 36.69814 3.22718 261 ft 169 kts 233°
2026-05-07 15:48 36.69132 3.21494 854 ft 176 kts 245°
2026-05-07 15:48 36.68858 3.20039 1589 ft 175 kts 276°
2026-05-07 15:48 36.69145 3.19079 1854 ft 189 kts 305°
2026-05-07 15:49 36.70335 3.18207 2145 ft 217 kts 351°
2026-05-07 15:49 36.71919 3.18323 2509 ft 242 kts
2026-05-07 15:49 36.73628 3.18052 3074 ft 257 kts 334°
2026-05-07 15:49 36.75199 3.16950 3974 ft 261 kts 328°
2026-05-07 15:50 36.76740 3.15729 4910 ft 264 kts 327°
2026-05-07 15:50 36.78291 3.14463 5795 ft 269 kts 327°
2026-05-07 15:50 36.79864 3.13178 6653 ft 272 kts 327°
2026-05-07 15:50 36.81466 3.11883 7476 ft 276 kts 326°
2026-05-07 15:51 36.83096 3.10578 8292 ft 281 kts 326°
2026-05-07 15:51 36.84757 3.09261 9105 ft 285 kts 326°
2026-05-07 15:51 36.86446 3.07931 9896 ft 289 kts 326°
2026-05-07 15:51 36.88200 3.06551 10286 ft 309 kts 325°
2026-05-07 15:52 36.90085 3.05063 10599 ft 329 kts 326°
2026-05-07 15:52 36.92041 3.03520 11252 ft 335 kts 326°
2026-05-07 15:52 36.94028 3.01958 11991 ft 339 kts 326°
2026-05-07 15:52 36.96029 3.00384 12728 ft 342 kts 326°
2026-05-07 15:53 36.98058 2.98785 13418 ft 347 kts 326°
2026-05-07 15:53 37.00108 2.97163 14054 ft 351 kts 325°
2026-05-07 15:53 37.02177 2.95522 14686 ft 354 kts 324°
2026-05-07 15:53 37.04243 2.93880 15299 ft 357 kts 323°
2026-05-07 15:54 37.06351 2.92208 15921 ft 361 kts 323°
2026-05-07 15:54 37.08486 2.90517 16540 ft 364 kts 322°
2026-05-07 15:54 37.10639 2.88814 17151 ft 368 kts 322°
2026-05-07 15:54 37.12809 2.87097 17775 ft 371 kts 321°
2026-05-07 15:55 37.15001 2.85358 18345 ft 374 kts 321°
2026-05-07 15:55 37.17211 2.83600 18847 ft 378 kts 321°
2026-05-07 15:55 37.19438 2.81827 19380 ft 379 kts 321°
2026-05-07 15:55 37.21621 2.80098 20515 ft 361 kts 321°
2026-05-07 15:56 37.23721 2.78436 21435 ft 354 kts 321°
2026-05-07 15:56 37.25798 2.76786 21614 ft 350 kts 321°
2026-05-07 15:56 37.27823 2.75178 21489 ft 339 kts 321°
2026-05-07 15:56 37.29789 2.73613 21283 ft 331 kts 321°
2026-05-07 15:57 37.31682 2.72103 21084 ft 323 kts 320°
2026-05-07 15:57 37.33559 2.70607 20920 ft 315 kts 320°
2026-05-07 15:57 37.35376 2.69157 20868 ft 303 kts 320°
2026-05-07 15:57 37.37123 2.67766 20879 ft 298 kts 320°
2026-05-07 15:58 37.38929 2.66297 20891 ft 321 kts 320°
2026-05-07 15:58 37.40808 2.64766 20874 ft 316 kts 320°
2026-05-07 15:58 37.42664 2.63271 20884 ft 326 kts 320°
2026-05-07 15:58 37.44636 2.61672 20881 ft 348 kts 321°
2026-05-07 15:59 37.46722 2.59983 20877 ft 359 kts 321°
2026-05-07 15:59 37.48800 2.58325 20879 ft 356 kts 321°
2026-05-07 15:59 37.50933 2.56621 20880 ft 367 kts 321°
2026-05-07 15:59 37.53103 2.54887 20879 ft 370 kts 321°
2026-05-07 16:00 37.55281 2.53145 20881 ft 371 kts 321°
2026-05-07 16:00 37.57458 2.51399 20882 ft 371 kts 321°
2026-05-07 16:00 37.59651 2.49635 20883 ft 378 kts 321°
2026-05-07 16:00 37.61875 2.47842 20883 ft 381 kts 321°
2026-05-07 16:01 37.64111 2.46040 20882 ft 382 kts 321°
2026-05-07 16:01 37.66350 2.44230 20880 ft 382 kts 321°
2026-05-07 16:01 37.68585 2.42427 20879 ft 382 kts 321°
2026-05-07 16:01 37.70822 2.40620 20877 ft 380 kts 321°
2026-05-07 16:02 37.72980 2.38881 20779 ft 367 kts 321°
2026-05-07 16:02 37.75115 2.37161 20385 ft 363 kts 321°
2026-05-07 16:02 37.77233 2.35449 19956 ft 360 kts 321°
2026-05-07 16:02 37.79337 2.33742 19567 ft 357 kts 321°
2026-05-07 16:03 37.81425 2.32057 19179 ft 355 kts 322°
2026-05-07 16:03 37.83520 2.30429 18796 ft 352 kts 323°
2026-05-07 16:03 37.85621 2.28842 18435 ft 350 kts 326°
2026-05-07 16:03 37.87707 2.27280 18022 ft 348 kts 326°
2026-05-07 16:04 37.89783 2.25722 17569 ft 346 kts 326°
2026-05-07 16:04 37.91846 2.24167 17129 ft 344 kts 325°
2026-05-07 16:04 37.93895 2.22614 16726 ft 343 kts 326°
2026-05-07 16:04 37.95938 2.21059 16287 ft 343 kts 326°
2026-05-07 16:05 37.97979 2.19503 15865 ft 342 kts 326°
2026-05-07 16:05 38.00016 2.17949 15463 ft 341 kts 326°
2026-05-07 16:05 38.02043 2.16399 15067 ft 340 kts 326°
2026-05-07 16:05 38.04064 2.14853 14869 ft 340 kts 326°
2026-05-07 16:06 38.06092 2.13300 14895 ft 341 kts 326°
2026-05-07 16:06 38.08123 2.11743 14893 ft 341 kts 326°
2026-05-07 16:06 38.10153 2.10187 14892 ft 341 kts 326°
2026-05-07 16:06 38.12181 2.08636 14722 ft 338 kts 326°
2026-05-07 16:07 38.14182 2.07109 14481 ft 332 kts 326°
2026-05-07 16:07 38.16123 2.05625 14244 ft 327 kts 326°
2026-05-07 16:07 38.18079 2.04127 14020 ft 322 kts 327°
2026-05-07 16:07 38.19955 2.02687 13781 ft 317 kts 327°
2026-05-07 16:08 38.21832 2.01247 13528 ft 313 kts 327°
2026-05-07 16:08 38.23682 1.99826 13271 ft 309 kts 327°
2026-05-07 16:08 38.25507 1.98420 13007 ft 305 kts 327°
2026-05-07 16:08 38.27313 1.97029 12744 ft 301 kts 327°
2026-05-07 16:09 38.28941 1.95416 12503 ft 293 kts 309°
2026-05-07 16:09 38.29991 1.93288 12419 ft 279 kts 292°
2026-05-07 16:09 38.30814 1.90991 12368 ft 291 kts 292°
2026-05-07 16:09 38.31657 1.88619 12237 ft 297 kts 292°
2026-05-07 16:10 38.32506 1.86224 11998 ft 296 kts 292°
2026-05-07 16:10 38.33353 1.83832 11780 ft 296 kts 292°
2026-05-07 16:10 38.34195 1.81446 11550 ft 295 kts 292°
2026-05-07 16:10 38.35036 1.79068 11301 ft 294 kts 292°
2026-05-07 16:11 38.35877 1.76699 10997 ft 291 kts 293°
2026-05-07 16:11 38.36709 1.74355 10703 ft 289 kts 293°
2026-05-07 16:11 38.37535 1.72016 10421 ft 290 kts 293°
2026-05-07 16:11 38.38359 1.69682 10130 ft 287 kts 293°
2026-05-07 16:12 38.39171 1.67369 9922 ft 285 kts 293°
2026-05-07 16:12 38.39980 1.65065 9896 ft 286 kts 293°
2026-05-07 16:12 38.40797 1.62741 9899 ft 286 kts 294°
2026-05-07 16:12 38.41610 1.60431 9898 ft 287 kts 293°
2026-05-07 16:13 38.42422 1.58124 9898 ft 289 kts 293°
2026-05-07 16:13 38.43255 1.55754 9899 ft 289 kts 293°
2026-05-07 16:13 38.44073 1.53424 9897 ft 287 kts 293°
2026-05-07 16:13 38.44877 1.51126 9896 ft 288 kts 292°
2026-05-07 16:14 38.45695 1.48794 9773 ft 287 kts 292°
2026-05-07 16:14 38.46508 1.46475 9642 ft 284 kts 294°
2026-05-07 16:14 38.47536 1.44338 9508 ft 284 kts 309°
2026-05-07 16:14 38.48844 1.42436 9380 ft 286 kts 311°
2026-05-07 16:15 38.50188 1.40557 9245 ft 286 kts 312°
2026-05-07 16:15 38.51523 1.38693 9112 ft 283 kts 311°
2026-05-07 16:15 38.52850 1.36834 8981 ft 283 kts 311°
2026-05-07 16:15 38.54180 1.34972 8846 ft 285 kts 312°
2026-05-07 16:16 38.55515 1.33101 8721 ft 285 kts 312°
2026-05-07 16:16 38.56845 1.31233 8575 ft 283 kts 312°
2026-05-07 16:16 38.58148 1.29392 8350 ft 283 kts 312°
2026-05-07 16:16 38.59454 1.27538 8008 ft 278 kts 312°
2026-05-07 16:17 38.60718 1.25733 7681 ft 266 kts 312°
2026-05-07 16:17 38.61924 1.23997 7358 ft 256 kts 312°
2026-05-07 16:17 38.63080 1.22327 7038 ft 246 kts 312°
2026-05-07 16:17 38.64200 1.20701 6727 ft 241 kts 312°
2026-05-07 16:18 38.65295 1.19099 6406 ft 237 kts 312°
2026-05-07 16:18 38.66378 1.17496 6026 ft 241 kts 312°
2026-05-07 16:18 38.67486 1.15842 5576 ft 248 kts 312°
2026-05-07 16:18 38.68613 1.14137 5143 ft 253 kts 311°
2026-05-07 16:19 38.69780 1.12441 4728 ft 254 kts 320°
2026-05-07 16:19 38.71267 1.11305 4399 ft 247 kts 345°
2026-05-07 16:19 38.72943 1.10961 4066 ft 242 kts
2026-05-07 16:19 38.74588 1.11262 3734 ft 238 kts 19°
2026-05-07 16:20 38.76072 1.12153 3417 ft 234 kts 37°
2026-05-07 16:20 38.77251 1.13510 3190 ft 228 kts 52°
2026-05-07 16:20 38.78072 1.15155 3185 ft 211 kts 62°
2026-05-07 16:20 38.78738 1.16753 3187 ft 196 kts 62°
2026-05-07 16:21 38.79363 1.18250 3018 ft 187 kts 62°
2026-05-07 16:21 38.79965 1.19693 2788 ft 181 kts 62°
2026-05-07 16:21 38.80550 1.21097 2570 ft 172 kts 62°
2026-05-07 16:21 38.81097 1.22411 2345 ft 163 kts 62°
2026-05-07 16:22 38.81623 1.23674 2129 ft 158 kts 62°
2026-05-07 16:22 38.82138 1.24912 1919 ft 155 kts 61°
2026-05-07 16:22 38.82647 1.26137 1712 ft 155 kts 61°
2026-05-07 16:22 38.83154 1.27355 1495 ft 155 kts 62°
2026-05-07 16:23 38.83652 1.28554 1308 ft 145 kts 61°
2026-05-07 16:23 38.84112 1.29653 1111 ft 135 kts 59°
2026-05-07 16:23 38.84596 1.30670 905 ft 134 kts 60°
2026-05-07 16:23 38.85013 1.31724 757 ft 133 kts 64°
2026-05-07 16:24 38.85433 1.32781 570 ft 134 kts 62°
2026-05-07 16:24 38.85861 1.33830 404 ft 132 kts 63°
2026-05-07 16:24 38.86297 1.34848 203 ft 130 kts 64°
2026-05-07 16:24 38.86689 1.35856 84 ft 127 kts 63°
2026-05-07 16:25 38.87084 1.36833 7 ft 116 kts 63°
2026-05-07 16:25 38.87395 1.37577 4 ft 58 kts 62°
2026-05-07 16:25 38.87551 1.37828 7 ft 26 kts 36°
2026-05-07 16:25 38.87610 1.37878 7 ft 0 kts 31°
2026-05-07 16:26 38.87613 1.37881 7 ft 4 kts 31°
2026-05-07 16:26 38.87676 1.37844 8 ft 14 kts 290°
2026-05-07 16:26 38.87660 1.37772 8 ft 12 kts 250°
2026-05-07 16:27 38.87628 1.37657 10 ft 9 kts 249°
2026-05-07 16:27 38.87601 1.37600 8 ft 7 kts 241°
2026-05-07 16:27 38.87598 1.37555 8 ft 5 kts 298°
2026-05-07 16:27 38.87626 1.37531 8 ft 8 kts 330°
2026-05-07 16:28 38.87686 1.37482 8 ft 10 kts 312°
2026-05-07 16:28 38.87689 1.37407 8 ft 13 kts 244°
2026-05-07 16:28 38.87623 1.37252 10 ft 21 kts 246°
2026-05-07 16:28 38.87564 1.37098 9 ft 18 kts 242°
2026-05-07 16:29 38.87519 1.36993 9 ft 10 kts 239°
2026-05-07 16:29 38.87519 1.36947 8 ft 3 kts 338°
2026-05-07 16:29 38.87537 1.36934 8 ft 4 kts 331°
2026-05-07 16:29 38.87559 1.36919 8 ft 1 kts 334°
2026-05-07 16:30 38.87566 1.36915 8 ft 0 kts 334°